Regional Weather Roundup
Issued by NWS New Orleans/Baton Rouge, LA

Home | Current Version | Previous Version | Graphics & Text | Print | Product List | Glossary On
Versions: 1 2 3 4 5 6 7 8 9 10 11 12 13 14 15 16 17 18 19 20 21 22 23 24 25 26 27 28 29 30 31 32 33 34 35 36 37 38 39 40 41 42 43 44 45 46 47 48 49 50
586
ASUS44 KLIX 272107
RWRLIX
NEW ORLEANS REGIONAL WEATHER ROUNDUP
NATIONAL WEATHER SERVICE NEW ORLEANS LA
400 PM CDT FRI MAR 27 2015

NOTE: "FAIR" INDICATES FEW OR NO CLOUDS BELOW 12,000 FEET WITH NO
      SIGNIFICANT WEATHER AND/OR OBSTRUCTIONS TO VISIBILITY.
      SKY/WX - SKY CONDITION AND SIGNIFICANT WEATHER.
      TMP - AIR TEMPERATURE.     DP    - DEWPOINT TEMPERATURE.
      RH  - RELATIVE HUMIDITY.   PRES  - PRESSURE.
      HI  - HEAT INDEX.          WCI   - WIND CHILL INDEX.

*  THESE STATIONS ARE NOT NWS OR FAA STATIONS AND ARE NOT UNDER
   NWS QUALITY CONTROL.

LAZ038-040-048-061>063-065>067-069-272200-
SOUTHEAST LOUISIANA

CITY           SKY/WX    TMP DP  RH WIND       PRES   REMARKS
N.O. AUDUBON   NOT AVBL
N.O. INTL ARPT MOSUNNY   69  37  30 NW10      30.01F
N.O. LAKEFRONT SUNNY     68  39  34 W10       30.01F
SLIDELL        SUNNY     70  35  27 NW10G22   29.99F
BATON ROUGE    SUNNY     68  38  33 NW14G24   30.03F
BOOTHVILLE     SUNNY     65  35  33 NW15      30.03F
BELLE CHASSE   MOSUNNY   68  33  27 NW9       30.00F
BOGALUSA*        N/A     71  33  24 N12G17    30.01F
GALLIANO*      CLEAR     72  35  25 W13       30.02F
NEW ROADS*       N/A     68  42  38 NW13G23   30.03F
GONZALES*        N/A     69  38  32 NW10G20   30.02F
HAMMOND*       SUNNY     72  30  21 NW15G23   30.02F
HOUMA*         SUNNY     70  39  32 NW10      30.06S
PORT FOURCHON* CLEAR     66  36  32 W9G16     30.06F

$$

MSZ070-080>082-272200-
SOUTHERN MISSISSIPPI

CITY           SKY/WX    TMP DP  RH WIND       PRES   REMARKS
MCCOMB         SUNNY     67  33  28 N14G24    30.01F
GULFPORT       SUNNY     69  32  25 NW14G28   29.97F
BILOXI         SUNNY     69  34  27 N14       29.97F
PASCAGOULA     SUNNY     69  30  23 NW13G22   29.96F
STENNIS ARPT*  SUNNY     70  25  18 NW12G17   29.99F

$$

COASTAL OBSERVATIONS
LAKE AND NEARSHORE STATIONS

STATION/POSITION TIME  TEMP    WIND        PRES    WAVE
                       AIR SEA DIR/SP/G            HT/PER
                 (UTC) (F)     (DEG/KT/KT) (MB)    (FT/S)
PASCAGOULA       2000   67     320/ 11/ 14 1014.5
WAVELAND YACHT   2006   65 68  310/ 13/ 18 1015.7
GRAND ISLE       2000   64 69  340/  9/ 13 1017.2
SOUTHWEST PASS   2000   65 53  320/ 15/ 16 1017.7
NEW CANAL        2012   65     270/  5/  9 1017.1
SHELL BEACH      2000   63 69  310/ 14/ 18 1016.8

OFFSHORE STATIONS

STATION/POSITION TIME  TEMP    WIND        PRES    WAVE
                       AIR SEA DIR/SP/G            HT/PER
                 (UTC) (F)     (DEG/KT/KT) (MB)    (FT/S)
64 S DAUPHIN ISL 2050   62 72  320/ 19/ 23 1015.9    4/ 5

$$




USA.gov is the U.S. government's official web portal to all federal, state and local government web resources and services.